[[{"header":{"parameterUnit":"m.s-1","parameterCategory":1,"la1":30.2991,"la2":30.254,"lo1":-89.0895,"lo2":-89.0444,"dy":0.0017,"dx":0.0017,"nx":28,"ny":28,"refTime":"2025-02-05T09:00:00:Z","depth":0,"parameterNumber":2,"parameterNumberName":"U-component_of_WINDS"},"data":[0,0,0,0,0,0,0,0,0,0,0,0,0,0,0,0,0,0,0,0,0,0,0,0,0,0,0,0,0,0,0,0,0,0,0,0,0,0,0,0,0,0,0,0,0,0,0,0,0,0,0,0,0,0,0,0,0,0,-1.4265,-1.4265,0,-1.4219,-1.4219,-1.4218,-1.4165,-1.4165,-1.4164,-1.4163,-1.4116,-1.4115,-1.4115,0,0,0,0,0,0,0,0,0,0,0,0,0,-1.4308,-1.4307,-1.4266,-1.4265,-1.4264,-1.4219,-1.4219,-1.4218,-1.4165,-1.4165,-1.4164,-1.4163,-1.4116,-1.4115,-1.4114,0,0,0,0,0,0,0,0,0,0,0,0,0,-1.4278,-1.4307,-1.4266,-1.4233,-1.4229,-1.4219,-1.4219,-1.4218,-1.4166,-1.4165,-1.4163,-1.4162,-1.4116,-1.4115,-1.4114,-1.4133,0,0,-1.4112,-1.4112,0,0,0,0,0,0,0,0,-1.428,-1.4277,-1.4238,-1.4235,-1.4231,-1.4197,-1.4216,-1.419,-1.4166,-1.419,-1.4163,-1.4162,-1.4144,-1.414,-1.4134,-1.4131,-1.4129,-1.4112,-1.4111,-1.4111,-1.4111,0,0,0,0,0,0,0,-1.4282,-1.4279,-1.4247,-1.4238,-1.4233,-1.422,-1.4215,-1.4211,-1.4174,-1.4188,-1.4184,-1.4179,-1.4141,-1.4135,-1.4133,-1.4128,-1.4112,-1.4111,-1.4111,-1.411,-1.4137,-1.4138,0,0,0,0,0,0,-1.4289,-1.4281,-1.4249,-1.4246,-1.4253,-1.422,-1.4214,-1.4209,-1.4174,-1.4167,-1.418,-1.4177,-1.4137,-1.4134,-1.4131,-1.4149,-1.4111,-1.411,-1.411,-1.4136,-1.4137,-1.4138,0,0,0,0,0,0,-1.429,-1.4287,-1.425,-1.4262,-1.4256,-1.4221,-1.4216,-1.4209,-1.4202,-1.4168,-1.4161,-1.4181,-1.4136,-1.4132,-1.4133,-1.4147,-1.411,-1.4109,-1.4134,-1.4136,-1.4138,-1.4188,0,0,0,0,0,0,-1.4292,-1.4288,-1.4294,-1.4263,-1.4256,-1.4253,-1.4216,-1.4209,-1.4201,-1.4196,-1.4167,-1.4161,-1.4135,-1.4134,-1.4132,-1.4145,-1.4109,-1.4133,-1.4135,-1.4137,-1.4184,-1.4191,-1.4196,0,0,0,0,0,-1.4294,-1.4311,-1.4295,-1.4292,-1.4264,-1.4254,-1.425,-1.4221,-1.4203,-1.4209,-1.4187,-1.4161,-1.4146,-1.4135,-1.4132,-1.4145,-1.4132,-1.4134,-1.4137,-1.4182,-1.419,-1.4196,0,0,0,0,0,0,-1.4345,-1.4306,-1.4288,-1.4295,-1.4279,-1.4245,-1.4252,-1.423,-1.4218,-1.4214,-1.4177,-1.4171,-1.4176,-1.4161,-1.4149,-1.4161,-1.4135,-1.4138,-1.417,-1.4178,-1.4183,-1.4186,-1.4108,0,0,0,0,0,-1.4357,-1.4353,-1.4319,-1.4329,-1.4321,-1.4289,-1.4283,-1.4262,-1.4243,-1.4235,-1.4213,-1.4196,-1.4187,-1.4181,-1.4172,-1.4183,-1.4175,-1.419,-1.4196,-1.4201,-1.4203,-1.4207,-1.4213,-1.4147,-1.4147,-1.4147,0,0,-1.4382,-1.436,-1.436,-1.4338,-1.4323,-1.4318,-1.4283,-1.428,-1.4276,-1.4235,-1.4233,-1.4217,-1.4195,-1.4201,-1.4202,-1.4188,-1.422,-1.4205,-1.4209,-1.4208,-1.421,-1.4216,-1.4222,-1.4149,-1.4149,-1.4148,0,0,-1.4426,-1.4409,-1.4415,-1.44,-1.4377,-1.4355,-1.4357,-1.4327,-1.4314,-1.4312,-1.4281,-1.4276,-1.4262,-1.4247,-1.4238,-1.4276,-1.4251,-1.4274,-1.4304,-1.4308,-1.4313,-1.4317,-1.433,-1.4335,-1.4276,-1.4276,-1.4276,0,-1.446,-1.4452,-1.4421,-1.442,-1.4411,-1.4373,-1.4378,-1.4365,-1.434,-1.4335,-1.432,-1.4301,-1.4283,-1.4285,-1.4294,-1.4288,-1.4288,-1.4276,-1.4315,-1.4319,-1.4323,-1.4334,-1.4339,-1.4279,-1.4278,-1.4278,-1.4278,0,-1.4494,-1.449,-1.4497,-1.4474,-1.4466,-1.4468,-1.4437,-1.4432,-1.4412,-1.4392,-1.439,-1.4368,-1.4353,-1.4352,-1.4332,-1.435,-1.4342,-1.4322,-1.4295,-1.4332,-1.4342,-1.4346,-1.4283,-1.4282,-1.4281,-1.428,0,0,-1.4568,-1.4527,-1.453,-1.4518,-1.449,-1.4486,-1.4486,-1.4471,-1.4468,-1.4452,-1.4451,-1.444,-1.442,-1.441,-1.4388,-1.4392,-1.4422,-1.4371,-1.437,-1.438,-1.4439,-1.4453,-1.4459,-1.4406,-1.4407,-1.4407,-1.444,0,-1.4605,-1.4603,-1.4575,-1.4581,-1.4575,-1.454,-1.454,-1.4523,-1.4504,-1.4497,-1.4476,-1.4468,-1.4444,-1.4437,-1.444,-1.4418,-1.4433,-1.4415,-1.4404,-1.4404,-1.4409,-1.4464,-1.4479,-1.4511,-1.4444,-1.4445,-1.4445,0,-1.4648,-1.4634,-1.4639,-1.461,-1.4607,-1.4608,-1.4591,-1.4585,-1.4564,-1.455,-1.4539,-1.4514,-1.4512,-1.4488,-1.4484,-1.4473,-1.4467,-1.4455,-1.4456,-1.4452,-1.4426,-1.4461,-1.4521,-1.4525,-1.4451,-1.4451,-1.445,0,-1.4699,-1.4682,-1.4683,-1.4674,-1.4641,-1.4642,-1.4628,-1.4606,-1.4599,-1.4584,-1.4579,-1.4565,-1.4557,-1.4546,-1.4518,-1.4503,-1.4517,-1.4491,-1.4505,-1.4505,-1.4508,-1.4508,-1.4566,-1.4507,-1.4507,-1.4507,-1.4507,0,-1.4742,-1.4747,-1.4705,-1.4705,-1.4709,-1.4677,-1.4681,-1.4664,-1.4645,-1.4641,-1.461,-1.4607,-1.4571,-1.4563,-1.4542,-1.4541,-1.4538,-1.4526,-1.452,-1.4528,-1.4529,-1.4522,-1.4519,-1.4508,-1.4508,-1.4507,-1.4507,0,-1.48,-1.4772,-1.477,-1.4739,-1.4731,-1.4735,-1.4708,-1.4706,-1.4686,-1.4681,-1.4678,-1.4646,-1.4636,-1.4607,-1.459,-1.4575,-1.4581,-1.457,-1.4587,-1.4583,-1.4598,-1.4596,-1.4653,-1.4658,-1.4597,-1.4597,-1.4598,0,-1.4828,-1.4831,-1.4799,-1.4794,-1.4782,-1.4774,-1.4766,-1.4735,-1.4728,-1.4704,-1.4706,-1.4693,-1.4681,-1.4666,-1.4641,-1.4628,-1.4616,-1.4637,-1.4613,-1.4621,-1.4614,-1.4614,-1.4613,-1.4641,-1.4642,-1.4643,-1.4643,0,-1.4882,-1.4868,-1.4858,-1.4842,-1.4834,-1.482,-1.4805,-1.4803,-1.4767,-1.4761,-1.475,-1.4741,-1.4723,-1.471,-1.4693,-1.4678,-1.4654,-1.4651,-1.4653,-1.466,-1.4669,-1.4663,-1.4599,-1.4649,-1.4649,-1.4648,-1.4648,-1.4648,-1.4924,-1.4925,-1.4902,-1.4891,-1.4877,-1.4863,-1.486,-1.4839,-1.483,-1.4812,-1.4795,-1.4785,-1.4764,-1.4738,-1.4725,-1.4717,-1.4705,-1.4708,-1.4709,-1.471,-1.4713,-1.4672,-1.4714,-1.4714,-1.4714,-1.4714,-1.4714,0,-1.4975,-1.4959,-1.4949,-1.4929,-1.492,-1.4899,-1.4881,-1.4876,-1.4868,-1.485,-1.4839,-1.4826,-1.4814,-1.4788,-1.4773,-1.4772,-1.476,-1.4769,-1.4768,-1.4764,-1.4726,-1.4725,-1.4778,-1.4778,-1.4778,-1.4778,-1.4778,-1.4778,-1.5,-1.4999,-1.4982,-1.4973,-1.4957,-1.4947,-1.4939,-1.4926,-1.4911,-1.4898,-1.4888,-1.4871,-1.485,-1.4833,-1.4821,-1.4814,-1.4809,-1.4821,-1.481,-1.4774,-1.4767,-1.4761,-1.476,-1.482,-1.482,-1.4849,-1.4849,-1.4849]},{"header":{"parameterUnit":"m.s-1","parameterCategory":1,"la1":30.2991,"la2":30.254,"lo1":-89.0895,"lo2":-89.0444,"dy":0.0017,"dx":0.0017,"nx":28,"ny":28,"refTime":"2025-02-05T09:00:00:Z","depth":0,"parameterNumber":3,"parameterNumberName":"V-component_of_WINDS"},"data":[0,0,0,0,0,0,0,0,0,0,0,0,0,0,0,0,0,0,0,0,0,0,0,0,0,0,0,0,0,0,0,0,0,0,0,0,0,0,0,0,0,0,0,0,0,0,0,0,0,0,0,0,0,0,0,0,0,0,2.0183,2.0183,0,2.0195,2.0195,2.0195,2.0193,2.0193,2.0193,2.0193,2.0203,2.0203,2.0203,0,0,0,0,0,0,0,0,0,0,0,0,0,2.0159,2.0159,2.0183,2.0183,2.0183,2.0194,2.0195,2.0195,2.0193,2.0193,2.0193,2.0193,2.0202,2.0203,2.0203,0,0,0,0,0,0,0,0,0,0,0,0,0,2.017,2.016,2.0183,2.0184,2.0184,2.0194,2.0195,2.0195,2.0193,2.0193,2.0193,2.0193,2.0202,2.0203,2.0204,2.0213,0,0,2.0205,2.0206,0,0,0,0,0,0,0,0,2.0169,2.0171,2.0184,2.0184,2.0184,2.0192,2.019,2.0201,2.0193,2.019,2.0193,2.0192,2.0199,2.02,2.0203,2.0213,2.0214,2.0206,2.0206,2.0206,2.0206,0,0,0,0,0,0,0,2.0168,2.017,2.0187,2.0184,2.0184,2.0184,2.0185,2.0192,2.0196,2.019,2.019,2.0192,2.0199,2.0202,2.0203,2.0214,2.0206,2.0206,2.0206,2.0207,2.0235,2.0235,0,0,0,0,0,0,2.0168,2.017,2.0187,2.0188,2.0176,2.0184,2.0186,2.019,2.0196,2.0196,2.0192,2.0191,2.0201,2.0202,2.0203,2.0216,2.0206,2.0207,2.0207,2.0234,2.0235,2.0235,0,0,0,0,0,0,2.0167,2.0169,2.0187,2.0179,2.0181,2.0185,2.019,2.019,2.0193,2.0197,2.0198,2.0194,2.0201,2.0202,2.0211,2.0216,2.0207,2.0208,2.0234,2.0234,2.0235,2.0241,0,0,0,0,0,0,2.0166,2.0169,2.0173,2.0179,2.0181,2.0194,2.019,2.0191,2.0195,2.0194,2.0199,2.02,2.0201,2.021,2.0212,2.0217,2.0208,2.0233,2.0234,2.0235,2.024,2.0241,2.0242,0,0,0,0,0,2.0166,2.0173,2.0173,2.0175,2.0186,2.0195,2.0196,2.0198,2.0195,2.0199,2.0202,2.02,2.0215,2.0211,2.0213,2.0218,2.0233,2.0234,2.0235,2.0239,2.0241,2.0242,0,0,0,0,0,0,2.0166,2.0174,2.0174,2.0183,2.0189,2.0194,2.0199,2.0199,2.0204,2.0204,2.0205,2.0206,2.0215,2.0218,2.0213,2.0229,2.0224,2.0225,2.0227,2.0228,2.023,2.0229,2.0209,0,0,0,0,0,2.0167,2.0174,2.018,2.0188,2.0191,2.0195,2.0198,2.02,2.0205,2.0207,2.021,2.0215,2.0221,2.0225,2.023,2.024,2.0242,2.0245,2.0246,2.0247,2.0248,2.0255,2.0257,2.0238,2.0238,2.0238,0,0,2.017,2.0175,2.0179,2.0188,2.0193,2.02,2.0196,2.0203,2.0209,2.0207,2.0216,2.0219,2.0224,2.0234,2.0239,2.0236,2.0254,2.0248,2.0249,2.025,2.0257,2.0258,2.026,2.0238,2.0238,2.0238,0,0,2.0178,2.0182,2.019,2.0195,2.0202,2.0205,2.0207,2.0213,2.0216,2.0225,2.0224,2.0231,2.0241,2.0245,2.0249,2.0261,2.026,2.0263,2.0269,2.0276,2.0278,2.0279,2.0284,2.0286,2.0264,2.0264,2.0264,0,2.018,2.0191,2.0194,2.0202,2.0207,2.0207,2.0216,2.022,2.0228,2.0231,2.0229,2.0243,2.0246,2.0258,2.0261,2.0264,2.0266,2.0262,2.0277,2.0279,2.028,2.0285,2.0287,2.0264,2.0264,2.0264,2.0264,0,2.0194,2.0202,2.0208,2.0217,2.0222,2.023,2.0234,2.0239,2.024,2.0244,2.0254,2.0258,2.0266,2.0268,2.0269,2.0281,2.0279,2.0277,2.0272,2.0282,2.0287,2.0289,2.0265,2.0265,2.0264,2.0264,0,0,2.0202,2.0215,2.0216,2.0222,2.023,2.0236,2.0245,2.0253,2.0258,2.0264,2.0272,2.0281,2.028,2.0284,2.0285,2.0291,2.0302,2.0288,2.0288,2.0291,2.0317,2.0319,2.0322,2.0302,2.0302,2.0302,2.0317,0,2.0212,2.0228,2.0231,2.0245,2.0253,2.0255,2.0262,2.0268,2.0272,2.0279,2.0283,2.029,2.0287,2.029,2.0296,2.03,2.0307,2.0298,2.0309,2.0309,2.0308,2.0324,2.0326,2.034,2.0319,2.0319,2.0319,0,2.0225,2.0233,2.0248,2.0258,2.0261,2.0268,2.0277,2.0284,2.0291,2.0294,2.0299,2.03,2.031,2.0305,2.0318,2.0312,2.0316,2.0319,2.032,2.0321,2.0315,2.0327,2.0344,2.0346,2.0322,2.0322,2.0322,0,2.0231,2.0245,2.0256,2.0261,2.0272,2.0277,2.0282,2.0289,2.0294,2.0302,2.0306,2.0314,2.0319,2.0325,2.0329,2.0325,2.0342,2.0337,2.0345,2.0345,2.0348,2.0348,2.0368,2.035,2.035,2.035,2.035,0,2.0241,2.0251,2.0259,2.0266,2.0277,2.0282,2.0292,2.0297,2.0304,2.0312,2.0313,2.032,2.0324,2.0332,2.0335,2.0346,2.0348,2.035,2.0351,2.0351,2.0351,2.0354,2.0353,2.0351,2.0351,2.0351,2.035,0,2.0249,2.0255,2.0268,2.0278,2.0281,2.0289,2.0298,2.0305,2.0309,2.0319,2.0322,2.0328,2.0338,2.0343,2.0354,2.0356,2.0369,2.0369,2.0367,2.0368,2.0375,2.0375,2.0398,2.0402,2.0381,2.0382,2.0382,0,2.0256,2.0263,2.0275,2.0282,2.0287,2.0296,2.0303,2.0308,2.0314,2.0325,2.0331,2.0341,2.0349,2.0365,2.0371,2.038,2.038,2.0388,2.0382,2.0382,2.0382,2.0382,2.0383,2.0389,2.0389,2.0389,2.0389,0,2.0267,2.0271,2.028,2.0291,2.0299,2.0308,2.0317,2.0321,2.0328,2.0335,2.0346,2.0353,2.0366,2.0376,2.0387,2.0391,2.0392,2.0392,2.0394,2.0394,2.0393,2.0395,2.0371,2.0391,2.0391,2.0391,2.0391,2.039,2.0275,2.0283,2.0293,2.0304,2.0312,2.032,2.0328,2.0334,2.0344,2.0356,2.0358,2.037,2.0379,2.0393,2.0398,2.0408,2.0406,2.0409,2.041,2.0411,2.0412,2.0391,2.0409,2.0409,2.0409,2.0409,2.0409,0,2.0288,2.0295,2.0305,2.0319,2.0328,2.0329,2.0339,2.0346,2.0357,2.0366,2.0375,2.0388,2.0399,2.0406,2.0417,2.0424,2.0424,2.0426,2.0426,2.0428,2.0412,2.041,2.0426,2.0426,2.0426,2.0426,2.0426,2.0426,2.0295,2.0309,2.0314,2.0331,2.0339,2.0351,2.0357,2.0365,2.0373,2.0388,2.0398,2.0403,2.0412,2.0424,2.0434,2.0436,2.044,2.0442,2.0444,2.043,2.0428,2.0427,2.0424,2.0443,2.0443,2.0459,2.0459,2.0459]}]]